Elkins, WV

12:45 PM EST on November 22, 2019 (GMT -0500)
Elkins-Randolph County

Weather History for KEKN - September, 2019

Change the Weather History Date:

Sunday, September 29, 2019

  Actual Average Record
Temperature  
Mean Temperature 74 °F 57 °F  
Max Temperature 89 °F 69 °F 90 °F (1953)
Min Temperature 59 °F 45 °F 26 °F (1942)
Degree Days  
Heating Degree Days 0 8  
Month to date heating degree days 12 121  
Since 1 July heating degree days 19 151  
Cooling Degree Days 9 1  
Month to date cooling degree days 134 47  
Year to date cooling degree days 805 473  
Growing Degree Days 24 (Base 50)    
Moisture  
Dew Point 60 °F    
Average Humidity 82    
Maximum Humidity 97    
Minimum Humidity 41    
Precipitation  
Precipitation T in 0.12 in 2.88 in (2016)
Month to date precipitation 0.48 3.52  
Year to date precipitation 38.19 36.33  
Snow  
Snow 0.00 in 0.00 in 0.00 in (2016)
Month to date snowfall 0.0 0.0  
Since 1 September snowfall 0.0 0.0  
Snow Depth 0.00 in    
Sea Level Pressure  
Sea Level Pressure 30.25 in    
Wind  
Wind Speed 0 mph ()    
Max Wind Speed 10 mph    
Max Gust Speed 14 mph    
Visibility 3.9 miles    
Events Fog    
T = Trace of Precipitation, MM = Missing Value Source: Averaged Metar Reports

Daily Weather History Graph

Daily Weather History Graph

Search for Another Location

Airport or City:

Astronomy

Sep. 29, 2019 Rise Set
Actual Time 7:13 AM EDT 7:05 PM EDT
Civil Twilight 6:46 AM EDT 7:32 PM EDT
Nautical Twilight 6:15 AM EDT 8:03 PM EDT
Astronomical Twilight 5:44 AM EDT 8:34 PM EDT
Moon 8:01 AM EDT (9/29) 8:05 PM EDT (9/29)
Length of Visible Light 12h 45m
Length of Day
11h 52m
New Moon, 1% of the Moon is Illuminated
Sep 29
New Moon
Oct 5
First Quarter
Oct 13
Full
Oct 21
Last Quarter
Oct 27
New

Hourly Weather History & Observations

Time (EDT) Temp. Heat Index Dew Point Humidity Pressure Visibility Wind Dir Wind Speed Gust Speed Precip Events Conditions
12:51 AM 64.0 °F - 61.0 °F 90% 30.21 in 4.0 mi Calm Calm - N/A   Clear
1:28 AM 63.0 °F - 60.1 °F 90% 30.24 in 1.8 mi Calm Calm - N/A   Clear
1:46 AM 62.6 °F - 59.0 °F 88% 30.24 in 3.0 mi Calm Calm - N/A   Clear
1:51 AM 62.1 °F - 59.0 °F 90% 30.22 in 2.5 mi Calm Calm - N/A   Clear
2:05 AM 61.0 °F - 57.9 °F 90% 30.25 in 2.0 mi Calm Calm - N/A   Partly Cloudy
2:07 AM 61.0 °F - 57.9 °F 90% 30.25 in 1.0 mi Calm Calm - N/A   Mist
2:10 AM 61.0 °F - 57.9 °F 90% 30.25 in 0.8 mi Calm Calm - N/A   Clear
2:29 AM 61.0 °F - 57.9 °F 90% 30.25 in 2.0 mi Calm Calm - N/A   Clear
2:46 AM 60.8 °F - 57.2 °F 88% 30.25 in 1.5 mi Calm Calm - N/A   Partly Cloudy
2:51 AM 61.0 °F - 57.9 °F 90% 30.23 in 1.5 mi Calm Calm - N/A   Partly Cloudy
3:10 AM 60.8 °F - 57.2 °F 88% 30.25 in 0.8 mi Calm Calm - N/A   Mist
3:14 AM 60.1 °F - 57.0 °F 90% 30.25 in 1.8 mi Calm Calm - N/A   Scattered Clouds
3:19 AM 60.1 °F - 57.0 °F 90% 30.25 in 5.0 mi Calm Calm - N/A   Mostly Cloudy
3:29 AM 60.1 °F - 57.0 °F 90% 30.25 in 1.5 mi Calm Calm - N/A   Mostly Cloudy
3:35 AM 60.1 °F - 57.9 °F 93% 30.25 in 0.2 mi Calm Calm - N/A Fog Fog
3:51 AM 60.1 °F - 57.0 °F 90% 30.22 in 0.2 mi Calm Calm - N/A Fog Fog
4:15 AM 60.1 °F - 57.0 °F 90% 30.26 in 0.5 mi Calm Calm - N/A Fog Fog
4:24 AM 60.1 °F - 57.0 °F 90% 30.26 in 0.2 mi Calm Calm - N/A Fog Fog
4:51 AM 61.0 °F - 57.9 °F 90% 30.22 in 0.5 mi Calm Calm - N/A Fog Fog
5:06 AM 60.1 °F - 57.9 °F 93% 30.26 in 0.2 mi Calm Calm - N/A Fog Fog
5:51 AM 60.1 °F - 57.0 °F 90% 30.24 in 0.2 mi Calm Calm - N/A Fog Fog
6:10 AM 60.1 °F - 57.0 °F 90% 30.27 in 0.8 mi Calm Calm - N/A   Overcast
6:20 AM 60.1 °F - 57.0 °F 90% 30.27 in 1.0 mi Calm Calm - N/A   Overcast
6:27 AM 60.1 °F - 57.0 °F 90% 30.27 in 0.5 mi Calm Calm - N/A Fog Fog
6:51 AM 60.1 °F - 57.0 °F 90% 30.26 in 0.5 mi Calm Calm - N/A Fog Fog
7:18 AM 60.1 °F - 57.0 °F 90% 30.29 in 0.2 mi Calm Calm - N/A Fog Fog
7:51 AM 61.0 °F - 59.0 °F 93% 30.28 in 0.2 mi Calm Calm - N/A Fog Fog
8:58 AM 63.0 °F - 59.0 °F 87% 30.31 in 0.5 mi Calm Calm - N/A Fog Fog
9:14 AM 63.0 °F - 60.1 °F 90% 30.32 in 0.2 mi Calm Calm - N/A Fog Fog
9:23 AM 64.0 °F - 60.1 °F 87% 30.32 in 0.8 mi Calm Calm - N/A   Overcast
9:29 AM 64.0 °F - 61.0 °F 90% 30.32 in 2.0 mi Calm Calm - N/A   Overcast
9:51 AM 66.9 °F - 62.1 °F 84% 30.30 in 5.0 mi Calm Calm - N/A   Haze
10:02 AM 66.9 °F - 63.0 °F 87% 30.32 in 8.0 mi Calm Calm - N/A   Scattered Clouds
10:51 AM 73.0 °F - 64.0 °F 73% 30.28 in 10.0 mi Calm Calm - N/A   Clear
11:51 AM 82.0 °F 84.1 °F 66.0 °F 58% 30.26 in 10.0 mi Variable 3.5 mph - N/A   Clear
12:51 PM 84.9 °F 86.1 °F 64.0 °F 49% 30.24 in 10.0 mi Variable 3.5 mph - N/A   Partly Cloudy
1:51 PM 87.1 °F 87.8 °F 63.0 °F 44% 30.22 in 9.0 mi SE 3.5 mph - 0.00 in   Scattered Clouds
2:51 PM 84.9 °F 85.0 °F 61.0 °F 44% 30.21 in 10.0 mi NNW 8.1 mph - N/A   Partly Cloudy
3:51 PM 86.0 °F 85.7 °F 60.1 °F 41% 30.20 in 10.0 mi North 8.1 mph - N/A   Clear
4:51 PM 84.0 °F 84.0 °F 60.1 °F 44% 30.20 in 10.0 mi NW 5.8 mph - N/A   Partly Cloudy
5:51 PM 82.0 °F 83.1 °F 63.0 °F 52% 30.21 in 10.0 mi NNW 4.6 mph - N/A   Clear
6:51 PM 79.0 °F - 64.9 °F 62% 30.22 in 10.0 mi NNW 3.5 mph - N/A   Clear
7:51 PM 73.9 °F - 66.0 °F 76% 30.24 in 10.0 mi Calm Calm - N/A   Clear
8:51 PM 70.0 °F - 64.9 °F 84% 30.26 in 10.0 mi Calm Calm - N/A   Clear
9:51 PM 68.0 °F - 64.0 °F 87% 30.27 in 10.0 mi Calm Calm - N/A   Clear
10:51 PM 66.9 °F - 63.0 °F 87% 30.26 in 9.0 mi Calm Calm - N/A   Clear
11:51 PM 64.9 °F - 62.1 °F 90% 30.24 in 6.0 mi Calm Calm - N/A   Clear